Location: *
(45.7167°N, 10.0833°E)
Time: 12:22:39
(UTC+00:00)

Daily predictions for brighter satellites

Satellite Brightness Start Highest point End
(mag) Time Altitude Azimuth Time Altitude Azimuth Time Altitude Azimuth
NOSS 3-3 (A) 4.1 17:50:36 10° SSW 17:56:17 54° ESE 18:02:38 10° NE
NOSS 3-3 (C) 4.1 17:50:42 10° SSW 17:56:24 53° ESE 18:02:44 10° NE
FREGAT/IRIS 3.9 17:54:47 10° ESE 17:56:56 20° ENE 17:59:04 10° NNE
BREEZE M DEB (TANK) 1.5 17:55:42 10° W 17:57:44 63° NNW 18:00:36 10° ENE
Cosmos 1842 3.7 17:54:27 10° N 17:58:15 42° ENE 18:02:01 10° SSE
SL-16 R/B 3.9 17:54:50 10° NW 18:00:01 37° WSW 18:05:11 10° S
Cosmos 1975 Rocket 4.3 17:55:49 10° NNW 18:00:09 49° W 18:04:28 10° SSW
Cosmos 1461 3.7 17:58:07 10° S 18:01:31 26° ESE 18:04:52 10° ENE
Cosmos 1833 4.2 17:56:02 10° SSW 18:01:44 74° ESE 18:07:24 10° NNE
HJ-1C 3.7 18:02:15 10° SE 18:05:28 44° ENE 18:08:42 10° N
SL-8 R/B 4.0 18:01:19 10° SW 18:05:56 51° SSE 18:10:37 10° ENE
CZ-4 R/B 3.2 18:07:34 10° SSW 18:11:06 34° W 18:14:43 10° NNW
MONITOR-E 4.1 18:10:21 10° SSE 18:13:04 49° ENE 18:15:48 10° N
ARGOS 4.3 18:08:58 10° ESE 18:13:16 25° ENE 18:17:35 10° N
Cosmos 2184 Rocket 4.0 18:07:26 10° N 18:13:39 68° E 18:19:53 10° SSE
COSMOS 2455 2.9 18:08:21 10° NNW 18:14:25 79° ENE 18:20:26 10° SE
USA 234 4.5 18:10:46 10° NE 18:16:39 37° NNW 18:22:31 10° WNW
Resurs 01 Rocket 3.4 18:18:23 11° E 18:20:30 15° ENE 18:23:03 10° NNE
Cosmos 2333 Rocket 2.4 18:14:55 10° NNW 18:20:30 53° ENE 18:26:05 10° SE
BREEZE-M DEB (TANK) 3.7 18:18:51 10° W 18:20:42 22° SW 18:22:37 10° SSE
Cosmos 405 3.9 18:18:06 10° NNW 18:21:32 51° W 18:24:55 10° S
USA 186 2.6 18:20:25 10° SE 18:23:28 34° ENE 18:26:37 10° N
Okean 1 Rocket 3.4 18:22:07 10° SSE 18:26:10 41° E 18:30:17 10° NNE
Okean 2 Rocket 4.0 18:21:51 10° SSW 18:26:13 54° WNW 18:30:39 10° N
GP-B 3.0 18:25:08 10° N 18:29:36 76° E 18:34:01 10° S
H-2A R/B 2.7 18:26:03 12° SE 18:30:05 33° ENE 18:34:31 10° N
ADEOS Rocket 4.1 18:23:58 10° NNE 18:30:28 34° E 18:37:15 10° SSE
ATLAS 2AS CENTAUR R/B 3.0 18:23:20 10° NW 18:31:05 66° NE 18:37:26 14° SE
Cosmos 1544 3.1 18:30:42 10° S 18:34:11 52° E 18:37:42 10° NNE
Cosmos 2237 Rocket 3.2 18:30:34 10° N 18:35:36 31° NE 18:39:01 17° ESE
Cosmos 2251 Rocket 3.7 18:30:13 10° NNW 18:35:36 78° WSW 18:40:58 10° SSE
Cosmos 1441 Rocket 3.2 18:33:43 10° S 18:37:28 54° E 18:41:12 10° NNE
SAR-Lupe-2 3.4 18:35:01 10° NNE 18:38:37 74° ESE 18:42:11 10° S
GEOS 3 Rocket 4.2 18:34:04 10° SSE 18:39:04 54° WSW 18:44:06 10° NW
Cosmos 1610 Rocket 4.5 18:33:56 10° N 18:40:14 74° E 18:46:35 10° SSE
Cosmos 1980 4.4 18:39:06 10° NNW 18:44:19 36° NE 18:47:30 20° ESE
MOS 1 4.4 18:38:45 10° SSE 18:44:28 86° WSW 18:50:12 10° NNW
Aureole 1 Rocket 3.3 18:39:11 10° NNW 18:44:47 86° WSW 18:48:58 10° SSE
Timation 2 Rocket 4.1 18:39:13 10° SSW 18:45:52 90° WSW 18:52:17 10° NNE
Cosmos 2327 Rocket 4.5 18:39:38 10° N 18:45:56 89° E 18:52:06 10° S
SJ-6B 2.9 18:42:50 11° SSE 18:46:46 62° ENE 18:50:51 10° N
Nadezhda 1 Rocket 3.9 18:41:38 10° S 18:47:41 80° E 18:53:47 10° N
Cosmos 1939 Rocket 4.3 18:45:42 10° SSW 18:49:19 38° W 18:52:57 10° NNW
Cosmos 1025 Rocket 4.0 18:53:02 10° NNW 18:57:09 47° W 19:01:13 10° SSW
Cosmos 1707 2.7 18:53:49 10° N 18:57:43 65° E 19:00:07 22° SSE
CZ-2C R/B 3.6 18:54:09 10° NNE 18:58:39 89° E 19:03:06 10° SSW
ASTEX 1 3.3 18:53:52 10° N 18:58:47 83° E 19:03:40 10° S
Okean 1-7 Rocket 4.1 18:54:57 10° N 18:59:09 40° ENE 19:00:40 30° ESE
Cosmos 1295 Rocket 4.4 18:54:57 10° N 19:01:11 72° E 19:07:17 10° SSE
Cosmos 1892 Rocket 4.0 18:57:14 10° N 19:01:29 41° ENE 19:02:54 31° ESE
SL-16 R/B 3.6 18:59:22 10° N 19:03:45 22° NE 19:05:35 19° ENE
Cosmos 389 Rocket 2.7 19:00:48 10° N 19:04:07 44° ENE 19:04:26 43° E
CZ-2C R/B 3.5 19:04:05 28° ESE 19:06:15 42° ENE 19:11:21 10° N
NOSS 0 Rocket 3.9 19:00:04 10° NNW 19:06:17 70° ENE 19:10:04 25° SE
COSMOS 2428 3.0 19:05:47 10° NNW 19:11:25 67° WSW 19:16:11 15° SSE
Meteor 1-4 Rocket 2.9 19:11:10 10° N 19:14:27 44° ENE 19:14:27 44° ENE
Cosmos 2219 Rocket 2.5 19:10:21 10° NNW 19:15:53 63° WSW 19:20:22 16° S
Cosmos 2341 Rocket 3.9 19:12:44 10° N 19:19:02 80° E 19:23:53 18° SSE
Meteor 1-15 Rocket 4.2 19:14:42 10° S 19:20:23 70° E 19:26:13 10° NNE
Cosmos 2181 Rocket 4.0 19:17:02 10° S 19:23:07 61° E 19:29:20 10° NNE
Cosmos 2056 Rocket 3.7 19:20:25 10° S 19:25:38 51° ESE 19:30:53 10° NNE
SL-08 RB Rocket 3.6 19:31:34 43° SSE 19:33:06 85° ENE 19:37:48 10° NNW
Cosmos 407 Rocket 3.3 19:28:35 10° NNW 19:33:45 82° ENE 19:35:14 47° SSE
CZ-2C R/B 3.9 19:30:04 10° NNE 19:33:16 26° ENE 19:33:16 26° ENE
Cosmos 2219 3.1 19:30:11 10° SSW 19:35:55 78° ESE 19:41:41 10° NNE
SPOT 3 Rocket 4.4 19:32:30 10° S 19:37:25 47° W 19:42:23 10° NNW
Cosmos 1624 Rocket 3.8 19:33:02 10° S 19:38:11 66° ESE 19:43:21 10° NNE
NOSS 3-4 (A) 3.9 19:31:18 10° NW 19:38:20 80° SW 19:42:03 34° SSE
NOSS 3-4 (C) 3.9 19:31:25 10° NW 19:38:27 80° SW 19:42:08 34° SSE
Cosmos 2227 Rocket 2.3 19:38:55 48° ESE 19:38:55 48° ESE 19:44:13 10° NE
Cosmos 1461 4.4 19:36:48 10° WSW 19:40:29 34° NW 19:44:09 10° NNE
Cosmos 1437 Rocket 3.8 19:38:29 10° N 19:40:57 33° NNE 19:40:57 33° NNE
Cosmos 2218 Rocket 3.9 19:35:49 10° N 19:42:14 72° E 19:44:33 41° SSE
Cosmos 614 Rocket 3.9 19:37:15 10° NNW 19:42:31 89° WSW 19:43:50 52° SSE
Cosmos 1544 Rocket 3.9 19:44:31 51° NE 19:44:31 51° NE 19:48:08 10° NNE
Cosmos 1455 Rocket 2.9 19:44:43 78° E 19:44:43 78° E 19:49:10 10° NNE
SL-8 R/B 3.8 19:43:40 10° W 19:48:27 70° NNW 19:49:21 55° NE
Cosmos 2366 rocket 3.9 19:43:37 10° N 19:50:01 77° E 19:52:02 46° SSE
Cosmos 2297 Rocket 2.1 19:48:53 51° SSE 19:50:02 63° ESE 19:55:38 10° NNE
ARGOS 3.8 19:49:52 22° SSW 19:53:12 51° W 19:58:28 10° NNW
Cosmos 405 Rocket 3.4 19:54:01 49° NNW 19:54:01 49° NNW 19:56:59 10° N
Cosmos 1954 Rocket 4.0 19:48:49 10° NNW 19:54:02 63° ENE 19:54:07 63° ENE
MetOp-B 4.1 19:54:34 63° E 19:54:52 64° ENE 20:00:11 10° N
Resurs 01 Rocket 1.8 19:55:58 60° SW 19:56:27 66° WSW 20:00:54 10° NNW
Cosmos 864 Rocket 4.4 19:50:23 10° N 19:56:38 82° E 19:58:18 52° SSE
Resurs 1-3 4.3 19:55:46 39° SW 19:56:54 49° W 20:01:11 10° NNW
Meteor 1-24 Rocket 3.7 19:51:33 10° N 19:57:16 68° ENE 19:57:50 64° ESE
Spot 2 Rocket 3.3 19:57:18 73° E 19:57:23 73° ENE 20:02:27 10° N
USA 234 4.4 19:54:50 19° ENE 19:58:40 35° N 20:04:27 10° NW
ERS-1 Rocket 4.1 20:00:24 31° NE 20:00:24 31° NE 20:03:56 10° N
SL-8 Rocket 4.1 19:55:51 10° NNW 20:02:02 70° W 20:04:44 35° SSW
Cosmos 2333 Rocket 4.0 19:59:48 10° NW 20:04:25 26° WSW 20:08:27 12° SSW
Cosmos 1626 Rocket 4.4 20:00:14 10° N 20:03:10 40° NNE 20:03:10 40° NNE
Cosmos 1140 Rocket 3.4 20:01:23 10° NNW 20:06:35 79° WSW 20:06:49 77° SW
Meteor 2-5 Rocket 3.9 20:01:30 10° NNW 20:07:17 75° W 20:08:43 52° SSW
Cosmos 1371 Rocket 4.4 20:03:08 10° SSW 20:08:22 62° WNW 20:13:42 10° NNE
H-2A R/B 3.4 20:06:40 19° SSW 20:09:29 32° W 20:13:58 10° NNW
ADEOS Rocket 4.0 20:09:08 10° N 20:16:09 57° WNW 20:23:36 10° SW
Terra 3.7 20:18:42 20° NNE 20:18:42 20° NNE 20:20:44 10° N
Cosmos 2237 Rocket 2.8 20:14:24 10° NW 20:19:53 49° WSW 20:20:52 44° SW
ATLAS 2AS CENTAUR R/B 4.1 20:15:03 10° NW 20:21:33 32° WSW 20:24:53 22° SSW
Cosmos 676 Rocket 4.2 20:18:56 10° NNW 20:23:53 67° W 20:23:53 67° W
Meteor 1-22 Rocket 4.4 20:27:37 72° SW 20:28:12 80° WNW 20:34:22 10° N
SL-16 R/B 2.6 20:42:48 10° NNW 20:47:27 59° NW 20:47:27 59° NW
CZ-2C R/B 3.8 21:10:06 10° N 21:14:46 42° NW 21:14:46 42° NW
Cosmos 2227 Rocket 3.8 21:20:30 22° W 21:23:03 31° NW 21:28:03 10° N
Cosmos 2297 Rocket 4.2 21:30:18 12° W 21:34:32 25° NW 21:39:10 10° N
USA 234 3.9 21:42:11 51° NNW 21:42:11 51° NNW 21:47:23 10° NW
Terra 4.4 21:57:36 17° NW 21:57:36 17° NW 21:58:50 10° NNW
CZ-4C R/B 3.9 23:08:26 10° NNW 23:12:51 38° N 23:12:51 38° N
